Weather in Blovice

Czech Republic     49°34′56″N   13°32′13″E
temp.,
°C
wind,
m/s
gust,
m/s
humid.,
%
clouds,
%
prec.,
mm/h
press.,
hPa
HPBL,
m
17 april, sat
sat1723:00+1nw1196100 0.0 102460
02:00+1w1299100 0.1 1023126
05:00+1w129891 0.0 1022158
08:00+2wnw128995 0.0 1022266
11:00+2nw1297100 0.6 1022208
14:00+5nnw2275100 0.8 1020966
17:00+5nne3377100 0.0 1020728
20:00+3nne1192100 0.0 102045
18 april, sun
sun1823:00+2nne1298100 0.1 1021592
02:00+3ne1184100 0.2 102049
05:00+2e0195100 0.1 102046
08:00+2ne0193100 0.1 1020209
11:00+5ne1177100 0.1 1020783
14:00+7nne1168100 0.3 1019906
17:00+8nne2266100 0.3 1018941
20:00+5n1177100 0.3 101910
19 april, mon
mon1923:00+3wnw1187100 0.0 102010
02:00+2w1191100 0.0 102010
05:00+3nw1192100 0.4 101940
08:00+3w1296100 1.6 1020230
11:00+4w1295100 0.9 1019258
14:00+7w1284100 1.5 1018613
17:00+8w2279100 0.3 1016331
20:00+6ne3793100 1.5 1017356
20 april, tue
tue2023:00+5n2293100 0.5 101761
02:00+6ne389198 0.6 1016451
05:00+3n229698 0.0 101711
08:00+5nnw128894 0.0 1016148
11:00+9nne457365 0.7 10161026
14:00+11n456014 1.6 10151407
17:00+11nne34615 0.7 10141091
20:00+6ese11765 0.7 101510
21 april, wed
wed2123:00+4s11855 0.0 101710
02:00+3sw11885 0.0 101710
05:00+2sw119065 0.0 101710
08:00+6wsw13815 0.0 1017151
11:00+11w34655 0.2 1016823
14:00+13wnw565626 0.9 10151725
17:00+10nne127815 1.1 1016185
20:00+7nw228998 2.5 101613